STARLINK-37022, 68101

Orbit data source: Space-Track

STARLINK-37022, 68101 is a payload satellite owned by SpaceX/Seattle (US) in SSO that was launched on Sun, 08 Mar 2026 UTC via an FALCON 9 launch vehicle from the Air Force Western Test Range (AFWTR). Payload-class satellites include a variety of spacecraft equipped with specific instruments for various scientific and technological missions. These include communications satellites like Starlink; space stations such as the ISS; scientific satellites like the Hubble; Earth observation satellites from companies like Planet Labs, Umbra, and HawkEye 360; GPS; miniature CubeSats for education and research; and military/defense satellites.

Loading next visibility...
Identifier
68101, 2026-044A
Orbit
SSO
Country
Flag of USUS
Related business
Manufacturer
SpaceX/Seattle
Mission
Operational spacecraft
Bus & Motor
STARLINK V2MO, Unknown motor
Mass
575 kg wet, ~530 kg dry
Launch date (UTC)
2026-03-08 (1 month ago)
Launch vehicle
FALCON 9
Launch site
Air Force Western Test Range (AFWTR)
Object type
Payload
Rocket body
Debris
Shape & HBR
Unknown shape, 17.7 m
Radar Cross Section
RCS unknown

Expand to show TLE details & history
Last TLE update: 17 hours ago

TLE from 17 hours ago
0 STARLINK-37022
1 68101U 26044A   26104.87146327  .00008510  00000-0  26556-3 0  9994
2 68101  97.2845  65.9981 0001715  88.2313 271.9126 15.33450596  7129
Epoch: 2026-04-14T20:54Z
TLE epoch observation values (Epoch: 2026-04-14T20:54:54.426Z)
Latitude
-0.00004°
Longitude
-90.77016°
Altitude
468.6 km
Speed
7.632 km/s
True Right ascension
04h 23m 59s
True Declination
0° 00' 00"
Sunlit
Object was in daylight at epoch
Visualization orbit readout
Latitude
Unknown
Longitude
Unknown
Altitude
Unknown
Speed
Unknown
Apparent Right ascension
Unknown
Apparent Declination
Unknown
Sunlit
N/A
Visualization observer readout
Local Sidereal Time
20:36:13
Azimuth
Unknown
Elevation
Unknown
Doppler factor
Unknown
Orbital elements
Apogee altitude
463.642 km
Perigee altitude
461.296 km
Semi-major axis
6,840.606 km
Eccentricity
0.00017
Inclination
97.2845°
RAAN
65.9981°
Arg. of periapsis
88.2313°
True anomaly
271.89296°
Mean anomaly
271.9126°
Eccentric anomaly
271.90278°
Mean motion
3.8362 °/min
Orbital period
93.84 mins
BSTAR
0.00026556
Loading maneuver chart data...
Computing Atmospheric mass density...
Loading historical data...
Loading historical data...
Loading historical data...
Loading historical data...
Loading historical data...
Loading historical data...
Loading historical data...

Documentation

Showing up to 5 results
|